[[{"header":{"parameterUnit":"m.s-1","parameterCategory":1,"la1":30.2991,"la2":30.254,"lo1":-89.0895,"lo2":-89.0444,"dy":0.0017,"dx":0.0017,"nx":28,"ny":28,"refTime":"2024-02-09T03:00:00:Z","depth":0,"parameterNumber":2,"parameterNumberName":"U-component_of_WINDS"},"data":[0,0,0,0,0,0,0,0,0,0,0,0,0,0,0,0,0,0,0,0,0,0,0,0,0,0,0,0,0,0,0,0,0,0,0,0,0,0,0,0,0,0,0,0,0,0,0,0,0,0,0,0,0,0,0,0,0,0,-2.2306,-2.2307,0,-2.2343,-2.2344,-2.2344,-2.2332,-2.2331,-2.233,-2.2329,-2.237,-2.2372,-2.2374,0,0,0,0,0,0,0,0,0,0,0,0,0,-2.2226,-2.2228,-2.2306,-2.2307,-2.2307,-2.2343,-2.2344,-2.2344,-2.2332,-2.2331,-2.233,-2.2329,-2.2369,-2.2371,-2.2374,0,0,0,0,0,0,0,0,0,0,0,0,0,-2.2262,-2.2228,-2.2306,-2.2305,-2.2305,-2.2343,-2.2344,-2.2345,-2.2332,-2.2331,-2.233,-2.2328,-2.2369,-2.2371,-2.2374,-2.2416,0,0,-2.2382,-2.2384,0,0,0,0,0,0,0,0,-2.226,-2.2265,-2.2305,-2.2305,-2.2306,-2.2332,-2.2331,-2.2369,-2.2332,-2.2322,-2.2329,-2.2328,-2.2358,-2.2362,-2.2372,-2.2418,-2.2419,-2.2383,-2.2384,-2.2386,-2.2386,0,0,0,0,0,0,0,-2.2258,-2.2263,-2.2321,-2.2305,-2.2306,-2.2304,-2.2307,-2.2338,-2.2347,-2.2323,-2.2322,-2.2326,-2.2358,-2.2369,-2.2373,-2.242,-2.2383,-2.2385,-2.2387,-2.2388,-2.2502,-2.2504,0,0,0,0,0,0,-2.2255,-2.2261,-2.232,-2.2322,-2.2279,-2.2306,-2.231,-2.2325,-2.2346,-2.2348,-2.2327,-2.2326,-2.2365,-2.2369,-2.2374,-2.2424,-2.2386,-2.2388,-2.239,-2.2501,-2.2503,-2.2504,0,0,0,0,0,0,-2.2253,-2.226,-2.2318,-2.2292,-2.2299,-2.2309,-2.2325,-2.2326,-2.2336,-2.235,-2.2352,-2.2336,-2.2364,-2.237,-2.2405,-2.2425,-2.2389,-2.2392,-2.2499,-2.2502,-2.2504,-2.2524,0,0,0,0,0,0,-2.2251,-2.2259,-2.2275,-2.2292,-2.23,-2.2348,-2.2326,-2.2328,-2.2341,-2.2339,-2.2359,-2.2361,-2.2364,-2.2401,-2.2408,-2.2428,-2.2394,-2.2498,-2.25,-2.2503,-2.2522,-2.2527,-2.2531,0,0,0,0,0,-2.2248,-2.228,-2.2276,-2.2283,-2.2319,-2.2349,-2.2354,-2.2356,-2.2343,-2.2358,-2.2367,-2.236,-2.2422,-2.2405,-2.2413,-2.2434,-2.2496,-2.25,-2.2503,-2.252,-2.2526,-2.2531,0,0,0,0,0,0,-2.2265,-2.2282,-2.2277,-2.2316,-2.2331,-2.2347,-2.2367,-2.2362,-2.2383,-2.238,-2.2382,-2.2387,-2.2423,-2.2432,-2.2413,-2.2476,-2.2457,-2.2462,-2.2468,-2.2474,-2.2478,-2.2475,-2.2396,0,0,0,0,0,-2.2273,-2.2296,-2.2309,-2.2342,-2.235,-2.2357,-2.237,-2.237,-2.2387,-2.2393,-2.2405,-2.2421,-2.2445,-2.246,-2.2482,-2.2524,-2.2528,-2.2542,-2.2547,-2.255,-2.2554,-2.2577,-2.2583,-2.2514,-2.2514,-2.2514,0,0,-2.2291,-2.2303,-2.2316,-2.2345,-2.2357,-2.2381,-2.2363,-2.2388,-2.2406,-2.2398,-2.2431,-2.244,-2.2459,-2.2498,-2.2515,-2.2506,-2.2574,-2.2554,-2.2557,-2.2559,-2.258,-2.2587,-2.2593,-2.2517,-2.2516,-2.2516,0,0,-2.2334,-2.2345,-2.2373,-2.2385,-2.2403,-2.2408,-2.2415,-2.2432,-2.2437,-2.2471,-2.2465,-2.2487,-2.2527,-2.254,-2.2553,-2.2602,-2.2596,-2.2609,-2.2632,-2.2654,-2.266,-2.2664,-2.2681,-2.2687,-2.2613,-2.2613,-2.2613,0,-2.2353,-2.2387,-2.2388,-2.2414,-2.2427,-2.242,-2.2448,-2.2461,-2.2486,-2.2495,-2.2485,-2.2535,-2.2547,-2.2589,-2.2601,-2.2611,-2.2619,-2.2606,-2.2659,-2.2663,-2.2668,-2.2684,-2.269,-2.2614,-2.2614,-2.2614,-2.2614,0,-2.241,-2.2434,-2.2454,-2.2477,-2.2493,-2.252,-2.2525,-2.2541,-2.254,-2.2547,-2.2581,-2.2596,-2.2621,-2.2631,-2.2631,-2.2673,-2.2667,-2.2658,-2.2639,-2.2676,-2.2691,-2.2697,-2.2616,-2.2616,-2.2615,-2.2615,0,0,-2.2464,-2.2487,-2.2494,-2.2504,-2.2524,-2.2543,-2.2571,-2.2594,-2.2607,-2.2625,-2.2648,-2.2682,-2.2674,-2.2688,-2.269,-2.2709,-2.2746,-2.2698,-2.2698,-2.2705,-2.2793,-2.2798,-2.2805,-2.2743,-2.2744,-2.2745,-2.2791,0,-2.2508,-2.2554,-2.2556,-2.2599,-2.2621,-2.2615,-2.2639,-2.2654,-2.2661,-2.2681,-2.2689,-2.2713,-2.2701,-2.2709,-2.2728,-2.2737,-2.2763,-2.2734,-2.2764,-2.2765,-2.2758,-2.2813,-2.2819,-2.2862,-2.2797,-2.2798,-2.2798,0,-2.2565,-2.2583,-2.2627,-2.2644,-2.2653,-2.2674,-2.2696,-2.2715,-2.2733,-2.2737,-2.2752,-2.2751,-2.278,-2.2761,-2.2801,-2.2781,-2.2794,-2.2801,-2.2803,-2.2804,-2.2783,-2.2816,-2.2875,-2.2881,-2.2808,-2.2807,-2.2806,0,-2.2598,-2.2635,-2.2666,-2.2675,-2.2695,-2.271,-2.2719,-2.2735,-2.2749,-2.2769,-2.2778,-2.2801,-2.2814,-2.2832,-2.2837,-2.2823,-2.2877,-2.2859,-2.2881,-2.2881,-2.2891,-2.289,-2.2952,-2.2901,-2.2901,-2.2901,-2.2901,0,-2.2647,-2.2674,-2.2681,-2.27,-2.273,-2.2733,-2.2764,-2.2772,-2.2787,-2.2808,-2.2805,-2.2825,-2.2832,-2.2853,-2.2858,-2.289,-2.2896,-2.29,-2.2901,-2.29,-2.2899,-2.2907,-2.2904,-2.2903,-2.2903,-2.2902,-2.2902,0,-2.2689,-2.2695,-2.2728,-2.2744,-2.2749,-2.2771,-2.2785,-2.2804,-2.281,-2.2837,-2.2844,-2.2855,-2.288,-2.2887,-2.2918,-2.2921,-2.2959,-2.2957,-2.2952,-2.2952,-2.2973,-2.2971,-2.3042,-2.3051,-2.2995,-2.2995,-2.2996,0,-2.2719,-2.2739,-2.2757,-2.2771,-2.278,-2.2802,-2.2816,-2.282,-2.2835,-2.2857,-2.2873,-2.2898,-2.2917,-2.2958,-2.2969,-2.2993,-2.2992,-2.3015,-2.2995,-2.2993,-2.2991,-2.2989,-2.2991,-2.3018,-2.3019,-2.302,-2.302,0,-2.277,-2.2772,-2.2792,-2.2813,-2.2829,-2.2846,-2.2862,-2.2874,-2.288,-2.2897,-2.2923,-2.2938,-2.2969,-2.2994,-2.3018,-2.3028,-2.3025,-2.3026,-2.3032,-2.3031,-2.3027,-2.3028,-2.2961,-2.3024,-2.3024,-2.3024,-2.3023,-2.3023,-2.2807,-2.2825,-2.284,-2.2862,-2.2874,-2.289,-2.2908,-2.2916,-2.2937,-2.2962,-2.2963,-2.2991,-2.3008,-2.304,-2.3052,-2.3074,-2.3068,-2.3077,-2.3079,-2.3081,-2.3082,-2.3024,-2.3079,-2.3079,-2.3079,-2.3079,-2.3079,0,-2.2858,-2.2867,-2.2887,-2.291,-2.2927,-2.2922,-2.294,-2.2955,-2.2979,-2.2995,-2.3014,-2.3044,-2.3068,-2.3081,-2.3105,-2.312,-2.312,-2.3126,-2.3125,-2.3127,-2.3087,-2.3079,-2.3127,-2.3127,-2.3127,-2.3127,-2.3127,-2.3126,-2.2886,-2.2916,-2.2919,-2.2955,-2.2965,-2.2991,-2.3001,-2.3016,-2.3028,-2.3061,-2.308,-2.3088,-2.3104,-2.3129,-2.3151,-2.3155,-2.3163,-2.3171,-2.3173,-2.3135,-2.313,-2.3125,-2.3118,-2.3173,-2.3173,-2.3212,-2.3212,-2.3212]},{"header":{"parameterUnit":"m.s-1","parameterCategory":1,"la1":30.2991,"la2":30.254,"lo1":-89.0895,"lo2":-89.0444,"dy":0.0017,"dx":0.0017,"nx":28,"ny":28,"refTime":"2024-02-09T03:00:00:Z","depth":0,"parameterNumber":3,"parameterNumberName":"V-component_of_WINDS"},"data":[0,0,0,0,0,0,0,0,0,0,0,0,0,0,0,0,0,0,0,0,0,0,0,0,0,0,0,0,0,0,0,0,0,0,0,0,0,0,0,0,0,0,0,0,0,0,0,0,0,0,0,0,0,0,0,0,0,0,2.0954,2.0955,0,2.1119,2.1121,2.1123,2.119,2.1189,2.1189,2.1189,2.1361,2.1366,2.1371,0,0,0,0,0,0,0,0,0,0,0,0,0,2.07,2.0704,2.0953,2.0955,2.0958,2.1119,2.1121,2.1123,2.119,2.1189,2.1189,2.1188,2.1359,2.1365,2.1371,0,0,0,0,0,0,0,0,0,0,0,0,0,2.0832,2.0706,2.0953,2.101,2.1017,2.1118,2.1121,2.1124,2.119,2.1189,2.1189,2.1188,2.1357,2.1365,2.1372,2.143,0,0,2.1395,2.1398,0,0,0,0,0,0,0,0,2.0825,2.0841,2.1,2.1006,2.1014,2.1133,2.1095,2.1227,2.119,2.1124,2.1189,2.1188,2.1286,2.1299,2.1332,2.1438,2.1445,2.1395,2.14,2.1403,2.1405,0,0,0,0,0,0,0,2.0815,2.0835,2.1019,2.1002,2.1011,2.1029,2.1047,2.112,2.1206,2.113,2.1135,2.1154,2.129,2.1324,2.1336,2.1448,2.1395,2.1402,2.1406,2.1409,2.1613,2.1614,0,0,0,0,0,0,2.0796,2.0827,2.1014,2.1024,2.0916,2.1034,2.1054,2.1096,2.1206,2.1222,2.1154,2.1156,2.1312,2.1327,2.1342,2.142,2.1403,2.141,2.1414,2.1613,2.1614,2.1615,0,0,0,0,0,0,2.0791,2.0812,2.1007,2.0927,2.0953,2.1039,2.1085,2.1099,2.1134,2.1224,2.124,2.1173,2.1312,2.1332,2.1408,2.1426,2.1413,2.142,2.1611,2.1613,2.1614,2.1573,0,0,0,0,0,0,2.0783,2.081,2.0831,2.0927,2.0957,2.1068,2.1086,2.1103,2.1146,2.115,2.1246,2.1262,2.1313,2.1397,2.1415,2.1436,2.1426,2.161,2.1612,2.1614,2.1573,2.1573,2.1572,0,0,0,0,0,2.0774,2.0813,2.0832,2.0854,2.0985,2.1069,2.1087,2.1144,2.1147,2.1171,2.1229,2.1259,2.1421,2.1404,2.1426,2.1449,2.1609,2.1611,2.1614,2.1573,2.1573,2.1572,0,0,0,0,0,0,2.0717,2.0826,2.0849,2.092,2.0985,2.108,2.1111,2.1142,2.1208,2.1209,2.1279,2.13,2.1371,2.1418,2.1396,2.1513,2.1518,2.1524,2.1479,2.148,2.148,2.1467,2.1432,0,0,0,0,0,2.0713,2.0771,2.0863,2.0917,2.0949,2.1024,2.1063,2.1102,2.1172,2.12,2.1264,2.1333,2.14,2.1442,2.1509,2.158,2.1603,2.1607,2.1607,2.1606,2.1611,2.1656,2.1659,2.1622,2.1622,2.1622,0,0,2.0705,2.0772,2.0804,2.0908,2.0963,2.1023,2.1047,2.1109,2.1155,2.121,2.1286,2.1336,2.1417,2.1492,2.1528,2.1533,2.1627,2.1609,2.1608,2.1614,2.1658,2.1662,2.1665,2.1623,2.1623,2.1623,0,0,2.0722,2.0777,2.0829,2.0884,2.0967,2.1017,2.103,2.1122,2.1157,2.1234,2.1278,2.1335,2.1447,2.1504,2.1548,2.1589,2.162,2.1609,2.1608,2.165,2.1653,2.1656,2.1673,2.1677,2.1613,2.1613,2.1613,0,2.0701,2.0792,2.0852,2.0912,2.0958,2.1011,2.1066,2.1117,2.1217,2.1248,2.1252,2.1397,2.1455,2.1545,2.1556,2.1589,2.1607,2.1598,2.1647,2.1651,2.1655,2.1672,2.1677,2.1612,2.1612,2.1612,2.1612,0,2.0765,2.0827,2.086,2.0955,2.1005,2.1062,2.1132,2.1175,2.1211,2.1261,2.1341,2.1413,2.1496,2.1521,2.1555,2.1617,2.1618,2.1633,2.164,2.1655,2.1673,2.1679,2.1609,2.161,2.161,2.1611,0,0,2.0749,2.0879,2.089,2.0935,2.1032,2.1082,2.1143,2.1224,2.1261,2.1329,2.1384,2.1479,2.1495,2.1545,2.1587,2.1624,2.1655,2.1636,2.1639,2.1639,2.173,2.1718,2.1724,2.1676,2.1677,2.1678,2.1724,0,2.0779,2.0889,2.0946,2.1032,2.1093,2.1145,2.1199,2.1265,2.1315,2.1375,2.143,2.1498,2.1513,2.1543,2.1582,2.1643,2.1674,2.164,2.1729,2.1731,2.1708,2.1733,2.172,2.176,2.1731,2.1732,2.1733,0,2.0829,2.0897,2.0989,2.1081,2.1109,2.1156,2.1236,2.1292,2.1369,2.1403,2.146,2.1502,2.157,2.1572,2.1668,2.1644,2.1684,2.1719,2.1722,2.1734,2.1733,2.1747,2.1774,2.178,2.1743,2.1743,2.1742,0,2.081,2.0925,2.0996,2.1033,2.1142,2.1174,2.1221,2.1298,2.1344,2.1415,2.1446,2.1524,2.1567,2.1627,2.169,2.1685,2.1782,2.1788,2.1814,2.1812,2.1832,2.183,2.1867,2.1855,2.1855,2.1855,2.1855,0,2.0839,2.0893,2.0989,2.1032,2.1097,2.1163,2.1225,2.1277,2.1345,2.1402,2.1452,2.1504,2.1583,2.1646,2.1695,2.177,2.1788,2.1819,2.1832,2.1815,2.1812,2.1843,2.1842,2.1857,2.1856,2.1856,2.1856,0,2.0828,2.0894,2.0975,2.1073,2.1099,2.1142,2.1226,2.1272,2.1325,2.1395,2.1416,2.15,2.1576,2.1645,2.1746,2.178,2.1856,2.1871,2.183,2.1837,2.186,2.1857,2.1919,2.1932,2.191,2.191,2.191,0,2.0842,2.0886,2.0988,2.1029,2.1076,2.1141,2.1189,2.1257,2.1305,2.1398,2.1433,2.1513,2.1581,2.1702,2.1772,2.1851,2.187,2.1886,2.1882,2.1865,2.1872,2.1869,2.1875,2.1886,2.1886,2.1885,2.1885,0,2.0861,2.0892,2.0958,2.1037,2.1092,2.1157,2.1224,2.1256,2.1337,2.1389,2.1467,2.152,2.1625,2.1705,2.1792,2.1843,2.1879,2.1886,2.1897,2.1881,2.1856,2.1872,2.183,2.1885,2.1885,2.1885,2.1885,2.1885,2.0865,2.0907,2.0986,2.1059,2.1117,2.1179,2.1228,2.1287,2.1354,2.1444,2.1481,2.1562,2.1642,2.1762,2.1813,2.1879,2.1886,2.19,2.1904,2.1907,2.1905,2.1844,2.1895,2.1895,2.1895,2.1895,2.1895,0,2.0887,2.0942,2.1008,2.1101,2.1159,2.1187,2.1264,2.1311,2.1381,2.1452,2.1519,2.1611,2.169,2.1767,2.1851,2.1889,2.1908,2.1908,2.1907,2.1919,2.1894,2.1877,2.1892,2.1892,2.1892,2.1892,2.1892,2.1892,2.0906,2.098,2.1021,2.1125,2.118,2.1259,2.1301,2.136,2.1417,2.1518,2.1583,2.1633,2.1709,2.1798,2.1873,2.1894,2.1923,2.192,2.1945,2.192,2.192,2.1919,2.1904,2.1925,2.1925,2.1965,2.1966,2.1966]}]]